Rbgn^[z[y[W
メイン
   新天体発見情報
     Comet P/2019 A8 = 2025 B3 (PANSTARRS)
投稿するにはまず登録を

スレッド表示 | 古いものから 前のトピック | 次のトピック | 下へ
投稿者 スレッド
佐藤裕久
投稿日時: 2025-3-3 13:07
モデレータ
登録日: 2005-6-12
居住地: 日本
投稿: 2701
オンライン
Comet P/2019 A8 = 2025 B3 (PANSTARRS)

小林隆男氏(群馬県大泉町)は、小惑星センターの"isolated tracklet file"(一般公開されて
いる)から、P/2019 A8 (CBET 4608参照)の検出観測を見つけた。
見つけたのは、1月24日、2月2日、5日のMt Lemmon 1.5-m 反射望遠鏡によるものと、2月5.33-
5.37日UT(20.7-20.9等)HaleakalaのPan-STARRS2 1.8-m Ritchey-Chretien反射望遠鏡による
観測である。
この彗星は、2月22日UT、M. Jaeger, G. RhemannとE. ProsperiがMartinsberg, Oed (オース
トリア)の0.35-m f/4.2 反射望遠鏡で得たCMOS画像から独立して検出した。
Jaegeは、39枚、70-秒露出では、20.1等、6"のコマが見え、p.a. 140°に12"のかすかな尾が
ある。と書きこんだ。
前回の回帰で彗星は短いアーク(55日)で観測され、2021年11月1日に木星に接近(0.26 AU)した
ため、軌道が変更された。
NK 5033  (= ICQ's 2025 CometHandbook)の中野主一氏の予報に対し、Delta(T)は、+49.2 days
であった。
MPEC 2019-L24のG. V. Williamsの予報に対する修正値は、Delta(T) = +42.7 daysであった。
MPEC 2021-L04のMichael Rudenkoの予報に対する修正値は、Delta(T) = +661.8 daysであった。

検出位置は次のとおり、

     2025 UT             R.A. (2000) Decl.       Mag.
     Jan. 24.39015    9 37 54.07   +15 47 28.6   21.3
          24.39541    9 37 53.85   +15 47 29.7   21.1
          24.40072    9 37 53.69   +15 47 31.4   21.2
          24.40600    9 37 53.53   +15 47 32.8   20.9
     Feb.  2.31040    9 32 29.00   +16 29 43.5   20.9
           2.31606    9 32 28.71   +16 29 45.9   20.7
           2.32169    9 32 28.43   +16 29 47.0   20.8
           2.32735    9 32 28.29   +16 29 49.2   20.9
           5.25577    9 30 28.31   +16 44 19.6
           5.26140    9 30 28.10   +16 44 21.3
           5.26703    9 30 27.82   +16 44 22.8   20.4

MPCの連結軌道要素、位置推算表は次のとおり、

Orbital elements:
    P/2019 A8 (PANSTARRS)                                                       
Epoch 2025 May 5.0 TT = JDT 2460800.5                                           
T 2025 Mar. 31.94156 TT                                 Veres                   
q   2.1317604            (2000.0)            P               Q                  
n   0.15613561     Peri.   46.68642     -0.92804571     -0.37058830             
a   3.4156085      Node   111.52992     +0.32905526     -0.86273783             
e   0.3758768      Incl.    2.30149     +0.17451013     -0.34401708             
P   6.31                                                                        
From 69 observations 2018 Dec. 16-2025 Feb. 25, mean residual 0".5.             
                                                                                
Ephemeris:
Date    TT    R. A. (2000) Decl.     Delta      r    Elong.  Phase   m1
2025 01 28    09 35 51.9 +16 04 03   1.2087  2.1792   166.8     5.9  19.8
...
2025 02 12    09 25 42.6 +17 17 19   1.1747  2.1595   174.7     2.4  19.7
...
2025 02 20    09 20 15.9 +17 53 03   1.1796  2.1511   165.5     6.6  19.7
...
2025 02 26    09 16 42.4 +18 15 35   1.1933  2.1458   158.6     9.7  19.7
2025 02 27    09 16 10.8 +18 18 54   1.1964  2.1450   157.4    10.2  19.7
2025 02 28    09 15 40.5 +18 22 04   1.1998  2.1442   156.3    10.7  19.7
...
2025 03 06    09 13 09.4 +18 37 55   1.2242  2.1400   149.7    13.5  19.7
...
2025 03 14    09 11 22.1 +18 50 03   1.2678  2.1357   141.2    16.9  19.8
...
2025 03 29    09 13 22.5 +18 44 21   1.3778  2.1319   126.8    22.0  20.0

(MPEC 2025-D234、CBET 5516、oaa-comet 7604)

スレッド表示 | 古いものから 前のトピック | 次のトピック | トップ

投稿するにはまず登録を
 
© 1999 Tsutomu Seki.